Weather History for Hanford, CA

Change the Weather History Date:

Monday, October 28, 2013

  Actual Average Record
Temperature  
Mean Temperature 56 °F 59 °F  
Max Temperature 65 °F 74 °F 86 °F (2003)
Min Temperature 47 °F 44 °F 34 °F (2006)
Degree Days  
Heating Degree Days 9    
Month to date heating degree days 49  
Since 1 July heating degree days 56  
Cooling Degree Days 0    
Month to date cooling degree days 22  
Year to date cooling degree days 2057  
Growing Degree Days 6 (Base 50)    
Moisture  
Dew Point 43 °F    
Average Humidity 62    
Maximum Humidity 86    
Minimum Humidity 37    
Precipitation  
Precipitation T in 0.03 in 0.07 in (2000)
Month to date precipitation T 0.40  
Year to date precipitation 1.61 7.37  
Since 1 July precipitation 0.01 0.61  
Snow  
Snow 0.00 in - - ()
Month to date snowfall 0.0  
Since 1 July snowfall 0.0  
Since 1 September snowfall 0.0  
Snow Depth 0.00 in    
Sea Level Pressure  
Sea Level Pressure 29.78 in    
Wind  
Wind Speed 8 mph (SE)    
Max Wind Speed 20 mph    
Max Gust Speed 24 mph    
Visibility 9 miles    
Events Rain    
T = Trace of Precipitation, MM = Missing Value Source: NWS Daily Summary

Daily Weather History Graph

Daily Weather History Graph

Search for Another Location

Airport:

Trip Planner

Search our weather history database for the weather conditions in past years. The results will help you decide how hot, cold, wet, or windy it might be!

Date:

Astronomy

Oct. 28, 2013 Rise Set
Actual Time 7:17 AM PDT 6:06 PM PDT
Civil Twilight 6:51 AM PDT 6:32 PM PDT
Nautical Twilight 6:21 AM PDT 7:02 PM PDT
Astronomical Twilight 5:51 AM PDT 7:32 PM PDT
Moon 1:25 AM PDT (10/28) 2:41 PM PDT (10/28)
Length of Visible Light 11h 41m
Length of Day
10h 48m
Waning Crescent, 33% of the Moon is Illuminated
Oct 28
Waning Crescent
Nov 3
New
Nov 9
First Quarter
Nov 17
Full
Nov 25
Last Quarter

Hourly Weather History & Observations

Time (PDT) Temp. Dew Point Humidity Pressure Visibility Wind Dir Wind Speed Gust Speed Precip Events Conditions
12:53 AM 50.0 °F 41.0 °F 71% 29.76 in 6.0 mi SE 6.9 mph - N/A   Haze
1:53 AM 51.1 °F 42.1 °F 71% 29.75 in 6.0 mi SE 9.2 mph - N/A   Haze
2:53 AM 51.1 °F 41.0 °F 68% 29.75 in 6.0 mi SE 4.6 mph - N/A   Haze
3:53 AM 53.1 °F 42.1 °F 66% 29.75 in 8.0 mi NW 3.5 mph - N/A   Clear
4:53 AM 52.0 °F 42.1 °F 69% 29.74 in 8.0 mi SSE 3.5 mph - N/A   Clear
5:53 AM 50.0 °F 43.0 °F 77% 29.74 in 7.0 mi ESE 8.1 mph - N/A   Clear
6:53 AM 52.0 °F 44.1 °F 74% 29.75 in 4.0 mi SSE 11.5 mph - N/A   Haze
7:53 AM 52.0 °F 43.0 °F 71% 29.75 in 5.0 mi South 9.2 mph - N/A   Haze
8:53 AM 55.0 °F 43.0 °F 64% 29.78 in 10.0 mi SSW 8.1 mph - 0.00 in Rain Light Rain
9:53 AM 57.0 °F 43.0 °F 59% 29.78 in 10.0 mi South 10.4 mph - 0.00 in   Mostly Cloudy
10:53 AM 57.0 °F 46.0 °F 67% 29.79 in 9.0 mi SSW 6.9 mph - 0.00 in Rain Light Rain
11:53 AM 59.0 °F 43.0 °F 55% 29.79 in 10.0 mi Variable 3.5 mph - 0.00 in   Scattered Clouds
12:53 PM 62.1 °F 39.9 °F 44% 29.77 in 10.0 mi South 5.8 mph - N/A   Partly Cloudy
1:53 PM 62.1 °F 42.1 °F 48% 29.76 in 10.0 mi NW 19.6 mph 23.0 mph N/A   Partly Cloudy
2:04 PM 61.0 °F 43.0 °F 52% 29.76 in 10.0 mi NNW 9.2 mph - N/A   Partly Cloudy
2:53 PM 63.0 °F 41.0 °F 45% 29.76 in 10.0 mi NW 5.8 mph - 0.00 in   Clear
3:53 PM 64.0 °F 37.9 °F 38% 29.76 in 10.0 mi Variable 3.5 mph - N/A   Clear
4:53 PM 61.0 °F 46.0 °F 58% 29.78 in 10.0 mi ENE 15.0 mph - N/A   Mostly Cloudy
5:53 PM 59.0 °F 46.0 °F 62% 29.78 in 10.0 mi East 6.9 mph - N/A   Clear
6:53 PM 55.9 °F 48.0 °F 75% 29.80 in 10.0 mi East 9.2 mph - N/A   Partly Cloudy
7:53 PM 54.0 °F 46.9 °F 77% 29.83 in 10.0 mi East 9.2 mph - N/A   Clear
8:53 PM 53.1 °F 46.9 °F 80% 29.84 in 10.0 mi East 8.1 mph - N/A   Clear
9:53 PM 51.1 °F 46.0 °F 83% 29.86 in 10.0 mi ESE 8.1 mph - N/A   Clear
10:53 PM 48.9 °F 45.0 °F 86% 29.88 in 10.0 mi ESE 5.8 mph - N/A   Clear
11:53 PM 48.0 °F 45.0 °F 89% 29.89 in 10.0 mi ESE 6.9 mph - N/A   Clear